Regional Weather Roundup
Issued by NWS

Home | Current Version | Previous Version | Text Only | Print | Product List | Glossary Off
Versions: 1 2 3 4 5 6 7 8 9 10 11 12 13 14 15 16 17 18 19 20 21 22 23 24 25 26 27 28 29 30 31 32 33 34 35 36 37 38 39 40 41 42 43 44 45 46 47 48 49 50

000
ASUS43 KLMK 041410
RWRKY
KENTUCKY REGIONAL WEATHER ROUNDUP
NATIONAL WEATHER SERVICE LOUISVILLE KY
900 AM EST SUN DEC 04 2016

NOTE "FAIR" INDICATES FEW OR NO CLOUDS BELOW 12,000 FEET
WITH NO SIGNIFICANT WEATHER AND/OR OBSTRUCTIONS TO VISIBILITY.

KYZ001>023-026-027-061>063-070>075-041500-
WESTERN AND SOUTH CENTRAL KENTUCKY

CITY           SKY/WX    TMP DP  RH WIND       PRES   REMARKS
PADUCAH        CLOUDY    41  38  89 E9        30.01F FOG
HENDERSON      CLOUDY    39  34  81 E9        30.04F WCI  33
OWENSBORO      CLOUDY    40  37  89 SE12      30.06F WCI  33
HOPKINSVILLE   CLOUDY    40  40 100 E12       30.02F WCI  34
BOWLING GREEN  CLOUDY    42  40  92 E7        30.10S
GLASGOW        CLOUDY   N/A N/A N/A E6        30.10S
$$

KYZ024-025-028>034-038-045-046-053-041500-
NORTH CENTRAL KENTUCKY

CITY           SKY/WX    TMP DP  RH WIND       PRES   REMARKS
LOUISVILLE/SDF CLOUDY    41  31  67 E8        30.12F
LOUISVILLE/LOU CLOUDY    41  32  70 E6        30.13F
FORT KNOX      CLOUDY    38  36  93 E9        30.09F WCI  31
$$

KYZ035>037-039>044-047>052-055>060-089>105-041500-
NORTHEAST KENTUCKY

CITY           SKY/WX    TMP DP  RH WIND       PRES   REMARKS
LEXINGTON      CLOUDY    39  32  76 E9        30.15F WCI  33
COVINGTON      CLOUDY    37  30  75 SE10      30.16F WCI  30
FRANKFORT      CLOUDY    39  32  76 E6        30.13F WCI  35
$$

KYZ054-064>069-076>088-106>120-041500-
SOUTHEAST KENTUCKY

CITY           SKY/WX    TMP DP  RH WIND       PRES   REMARKS
JACKSON        CLOUDY    37  30  75 NE6       30.17R WCI  32
LONDON         LGT RAIN  39  35  86 N5        30.17R
SOMERSET       DRIZZLE   37  37 100 E5        30.15F WCI  34
MIDDLESBORO    DRIZZLE   39  39  98 W5        30.17S
MONTICELLO     CLOUDY    40  39  97 E5        30.14F
$$





USA.gov is the U.S. government's official web portal to all federal, state and local government web resources and services.